[[{"header":{"parameterUnit":"m.s-1","parameterCategory":1,"la1":30.2991,"la2":30.254,"lo1":-89.0895,"lo2":-89.0444,"dy":0.0017,"dx":0.0017,"nx":28,"ny":28,"refTime":"2024-09-02T21:00:00:Z","depth":0,"parameterNumber":2,"parameterNumberName":"U-component_of_WINDS"},"data":[0,0,0,0,0,0,0,0,0,0,0,0,0,0,0,0,0,0,0,0,0,0,0,0,0,0,0,0,0,0,0,0,0,0,0,0,0,0,0,0,0,0,0,0,0,0,0,0,0,0,0,0,0,0,0,0,0,0,-1.3272,-1.3271,0,-1.3165,-1.3164,-1.3163,-1.3036,-1.3034,-1.3032,-1.303,-1.2918,-1.2917,-1.2916,0,0,0,0,0,0,0,0,0,0,0,0,0,-1.3366,-1.3365,-1.3272,-1.3271,-1.327,-1.3166,-1.3164,-1.3163,-1.3036,-1.3033,-1.3031,-1.3029,-1.2919,-1.2917,-1.2916,0,0,0,0,0,0,0,0,0,0,0,0,0,-1.3299,-1.3364,-1.3273,-1.3194,-1.3186,-1.3166,-1.3164,-1.3162,-1.3036,-1.3033,-1.303,-1.3028,-1.2919,-1.2917,-1.2916,-1.2964,0,0,-1.291,-1.291,0,0,0,0,0,0,0,0,-1.3303,-1.3295,-1.3207,-1.3199,-1.319,-1.3111,-1.3156,-1.3096,-1.3037,-1.3093,-1.303,-1.3026,-1.2984,-1.2977,-1.2963,-1.2958,-1.2954,-1.291,-1.2909,-1.2908,-1.2908,0,0,0,0,0,0,0,-1.3308,-1.3299,-1.323,-1.3206,-1.3195,-1.3164,-1.3151,-1.3144,-1.3056,-1.3088,-1.3078,-1.3068,-1.2979,-1.2966,-1.296,-1.2952,-1.291,-1.2909,-1.2908,-1.2907,-1.2983,-1.2986,0,0,0,0,0,0,-1.3324,-1.3304,-1.3233,-1.3227,-1.324,-1.3165,-1.315,-1.3139,-1.3056,-1.3041,-1.307,-1.3062,-1.297,-1.2962,-1.2956,-1.3007,-1.2908,-1.2907,-1.2906,-1.298,-1.2984,-1.2987,0,0,0,0,0,0,-1.3327,-1.3319,-1.3238,-1.3263,-1.325,-1.3166,-1.3155,-1.3139,-1.3125,-1.3043,-1.3026,-1.3072,-1.2967,-1.2958,-1.2963,-1.3002,-1.2906,-1.2904,-1.2976,-1.2981,-1.2985,-1.3112,0,0,0,0,0,0,-1.333,-1.3321,-1.3338,-1.3264,-1.3249,-1.3248,-1.3157,-1.3139,-1.3122,-1.3111,-1.304,-1.3026,-1.2964,-1.2967,-1.2962,-1.2998,-1.2903,-1.2973,-1.2979,-1.2984,-1.3104,-1.312,-1.3134,0,0,0,0,0,-1.3334,-1.3377,-1.334,-1.3332,-1.3269,-1.325,-1.3241,-1.317,-1.3126,-1.3143,-1.3091,-1.3028,-1.2999,-1.2968,-1.2961,-1.2998,-1.297,-1.2977,-1.2984,-1.3097,-1.3117,-1.3134,0,0,0,0,0,0,-1.3456,-1.3366,-1.3323,-1.3344,-1.3306,-1.3229,-1.3247,-1.3193,-1.3166,-1.3156,-1.3068,-1.3054,-1.307,-1.3034,-1.3002,-1.3041,-1.2975,-1.2981,-1.3064,-1.3082,-1.3097,-1.3105,-1.2902,0,0,0,0,0,-1.3486,-1.3479,-1.3399,-1.3425,-1.3409,-1.3332,-1.3321,-1.327,-1.3226,-1.3209,-1.3157,-1.3117,-1.3099,-1.3088,-1.3067,-1.3098,-1.3082,-1.312,-1.3135,-1.3148,-1.3154,-1.317,-1.3186,-1.301,-1.301,-1.3009,0,0,-1.3547,-1.3496,-1.3497,-1.3449,-1.3413,-1.3408,-1.3319,-1.3316,-1.3311,-1.3208,-1.321,-1.3172,-1.3121,-1.314,-1.3146,-1.3111,-1.32,-1.3157,-1.3168,-1.3166,-1.3179,-1.3195,-1.321,-1.3014,-1.3013,-1.3013,0,0,-1.3654,-1.3616,-1.3633,-1.36,-1.3548,-1.3497,-1.3502,-1.3434,-1.3404,-1.3405,-1.3329,-1.3321,-1.3291,-1.3259,-1.3239,-1.3338,-1.328,-1.3333,-1.3412,-1.3429,-1.3442,-1.3454,-1.3491,-1.3505,-1.334,-1.334,-1.334,0,-1.3736,-1.3725,-1.3649,-1.3652,-1.3634,-1.3542,-1.356,-1.3532,-1.3475,-1.3465,-1.3426,-1.3389,-1.3348,-1.3359,-1.3384,-1.337,-1.3373,-1.334,-1.3447,-1.3458,-1.3468,-1.3501,-1.3515,-1.3347,-1.3346,-1.3345,-1.3345,0,-1.3828,-1.3822,-1.3843,-1.3792,-1.3776,-1.3787,-1.3713,-1.3706,-1.3657,-1.3611,-1.3614,-1.3563,-1.353,-1.3529,-1.348,-1.3534,-1.3514,-1.3463,-1.3395,-1.3493,-1.3523,-1.3535,-1.3357,-1.3354,-1.3352,-1.335,0,0,-1.4008,-1.3918,-1.3927,-1.3904,-1.3841,-1.3834,-1.3841,-1.3811,-1.3807,-1.3772,-1.3776,-1.3754,-1.3707,-1.3684,-1.3631,-1.3646,-1.3729,-1.3592,-1.3589,-1.362,-1.3787,-1.3826,-1.3842,-1.3691,-1.3693,-1.3694,-1.3791,0,-1.4105,-1.4112,-1.4046,-1.4071,-1.4064,-1.3979,-1.3985,-1.3948,-1.3905,-1.3894,-1.3846,-1.3832,-1.377,-1.3756,-1.3767,-1.3717,-1.3761,-1.3709,-1.3693,-1.3694,-1.3709,-1.3858,-1.3899,-1.3993,-1.3802,-1.3804,-1.3806,0,-1.4217,-1.4191,-1.4216,-1.4154,-1.4149,-1.4156,-1.4124,-1.4114,-1.407,-1.4038,-1.4015,-1.3955,-1.3957,-1.3894,-1.3897,-1.3863,-1.3853,-1.3828,-1.383,-1.3825,-1.3756,-1.3858,-1.4021,-1.4035,-1.3823,-1.3822,-1.3821,0,-1.4347,-1.4317,-1.4329,-1.4312,-1.4239,-1.4247,-1.4217,-1.417,-1.4157,-1.4129,-1.412,-1.4092,-1.4077,-1.4057,-1.3992,-1.3952,-1.4003,-1.3934,-1.3977,-1.3979,-1.3991,-1.3992,-1.4155,-1.3985,-1.3985,-1.3985,-1.3984,0,-1.4462,-1.4481,-1.4386,-1.4394,-1.4413,-1.4337,-1.4358,-1.432,-1.428,-1.4278,-1.4202,-1.4203,-1.4116,-1.4107,-1.4056,-1.4068,-1.4061,-1.4036,-1.4022,-1.4042,-1.4046,-1.4034,-1.4026,-1.3988,-1.3988,-1.3987,-1.3986,0,-1.4609,-1.4547,-1.4554,-1.4487,-1.447,-1.4488,-1.4429,-1.4433,-1.4387,-1.4387,-1.4382,-1.4309,-1.4295,-1.4228,-1.4197,-1.4163,-1.4192,-1.4164,-1.4207,-1.4198,-1.4246,-1.4243,-1.4408,-1.4426,-1.4245,-1.4247,-1.4248,0,-1.4686,-1.4699,-1.4634,-1.4628,-1.4603,-1.4594,-1.4581,-1.4507,-1.4497,-1.445,-1.446,-1.444,-1.4419,-1.44,-1.4344,-1.4321,-1.4293,-1.4352,-1.4288,-1.431,-1.4295,-1.4295,-1.4296,-1.4366,-1.4368,-1.437,-1.4372,0,-1.483,-1.48,-1.4784,-1.4758,-1.4745,-1.4721,-1.4692,-1.4692,-1.4611,-1.4603,-1.4588,-1.4573,-1.4543,-1.4524,-1.4492,-1.4461,-1.4404,-1.4393,-1.4402,-1.4423,-1.4448,-1.4436,-1.4245,-1.4389,-1.4387,-1.4386,-1.4385,-1.4384,-1.4945,-1.4953,-1.4909,-1.4895,-1.4867,-1.4842,-1.4844,-1.4799,-1.4785,-1.4756,-1.4714,-1.4705,-1.4663,-1.4614,-1.4588,-1.458,-1.4547,-1.456,-1.4563,-1.4568,-1.4579,-1.445,-1.4574,-1.4573,-1.4573,-1.4572,-1.4572,0,-1.5085,-1.5054,-1.5042,-1.5005,-1.4995,-1.4943,-1.491,-1.4904,-1.4898,-1.4864,-1.4846,-1.4831,-1.4813,-1.4757,-1.4734,-1.4738,-1.4712,-1.4735,-1.4734,-1.4728,-1.4609,-1.4604,-1.4757,-1.4757,-1.4757,-1.4757,-1.4757,-1.4757,-1.5157,-1.5169,-1.5134,-1.5132,-1.5099,-1.5092,-1.5077,-1.5055,-1.5028,-1.5014,-1.4999,-1.4964,-1.4921,-1.4895,-1.4877,-1.4861,-1.4856,-1.4888,-1.4864,-1.4754,-1.4736,-1.4719,-1.4714,-1.4887,-1.4888,-1.4983,-1.4984,-1.4985]},{"header":{"parameterUnit":"m.s-1","parameterCategory":1,"la1":30.2991,"la2":30.254,"lo1":-89.0895,"lo2":-89.0444,"dy":0.0017,"dx":0.0017,"nx":28,"ny":28,"refTime":"2024-09-02T21:00:00:Z","depth":0,"parameterNumber":3,"parameterNumberName":"V-component_of_WINDS"},"data":[0,0,0,0,0,0,0,0,0,0,0,0,0,0,0,0,0,0,0,0,0,0,0,0,0,0,0,0,0,0,0,0,0,0,0,0,0,0,0,0,0,0,0,0,0,0,0,0,0,0,0,0,0,0,0,0,0,0,0.5123,0.5122,0,0.4997,0.4996,0.4994,0.4991,0.4993,0.4994,0.4996,0.4857,0.4852,0.4847,0,0,0,0,0,0,0,0,0,0,0,0,0,0.5353,0.5349,0.5124,0.5122,0.5121,0.4998,0.4996,0.4994,0.4991,0.4993,0.4995,0.4996,0.4859,0.4852,0.4846,0,0,0,0,0,0,0,0,0,0,0,0,0,0.5242,0.5347,0.5124,0.5104,0.5101,0.4998,0.4996,0.4994,0.499,0.4993,0.4995,0.4997,0.4861,0.4853,0.4845,0.475,0,0,0.4822,0.4818,0,0,0,0,0,0,0,0,0.5249,0.5234,0.5109,0.5105,0.5102,0.5013,0.5026,0.4912,0.499,0.5032,0.4996,0.4998,0.4906,0.4895,0.4866,0.4744,0.4738,0.4821,0.4816,0.4813,0.4811,0,0,0,0,0,0,0,0.5256,0.5239,0.5073,0.5107,0.5103,0.5099,0.5086,0.5004,0.4957,0.5029,0.5028,0.5014,0.4905,0.4873,0.4862,0.4736,0.4821,0.4814,0.481,0.4807,0.4526,0.4523,0,0,0,0,0,0,0.5269,0.5246,0.5077,0.507,0.5183,0.5093,0.5078,0.5039,0.4958,0.4948,0.5012,0.5014,0.4885,0.4871,0.4857,0.4738,0.4813,0.4806,0.4801,0.4529,0.4525,0.4522,0,0,0,0,0,0,0.5274,0.5254,0.5082,0.5157,0.5135,0.5086,0.5042,0.5035,0.5003,0.4946,0.4936,0.4989,0.4886,0.4868,0.4777,0.4733,0.4802,0.4795,0.4532,0.4528,0.4524,0.45,0,0,0,0,0,0,0.5281,0.5256,0.5221,0.5157,0.5131,0.5007,0.5039,0.5031,0.4991,0.4993,0.4921,0.4912,0.4887,0.4788,0.4769,0.4724,0.4789,0.4536,0.453,0.4525,0.4504,0.4496,0.4488,0,0,0,0,0,0.5289,0.5218,0.522,0.5199,0.5088,0.5004,0.4989,0.4965,0.4988,0.4951,0.4914,0.4914,0.4742,0.4779,0.4757,0.4709,0.4538,0.4532,0.4526,0.4508,0.4497,0.4488,0,0,0,0,0,0,0.5276,0.521,0.521,0.5118,0.5067,0.5004,0.4957,0.4955,0.4894,0.4898,0.4868,0.4851,0.476,0.4726,0.4768,0.4611,0.4642,0.4631,0.4636,0.4626,0.4618,0.4626,0.4783,0,0,0,0,0,0.5263,0.5204,0.5148,0.5071,0.5046,0.5006,0.4969,0.4955,0.49,0.4877,0.4833,0.4777,0.471,0.4667,0.4602,0.4501,0.4483,0.4457,0.4449,0.4442,0.4431,0.4372,0.4359,0.4502,0.4502,0.4502,0,0,0.5234,0.5191,0.5155,0.5068,0.5027,0.4963,0.4988,0.492,0.487,0.4866,0.4777,0.4743,0.4678,0.4581,0.4535,0.4549,0.4389,0.4434,0.4429,0.4422,0.4364,0.4351,0.4339,0.4497,0.4498,0.4499,0,0,0.5149,0.5112,0.5042,0.5001,0.494,0.4914,0.4898,0.4835,0.4812,0.4724,0.4718,0.4659,0.4545,0.4498,0.446,0.4357,0.4353,0.4336,0.4291,0.4234,0.4223,0.4212,0.4172,0.4158,0.4327,0.4327,0.4327,0,0.5119,0.5026,0.5006,0.4937,0.4898,0.4894,0.4822,0.4782,0.4702,0.4673,0.4691,0.4547,0.4503,0.4393,0.4369,0.4339,0.4315,0.4342,0.4227,0.4216,0.4206,0.4167,0.4152,0.4325,0.4325,0.4325,0.4326,0,0.4991,0.4926,0.4877,0.4802,0.4757,0.4687,0.4654,0.461,0.46,0.4571,0.4479,0.4427,0.4351,0.4324,0.4313,0.4212,0.4222,0.4234,0.4263,0.4191,0.4153,0.4139,0.4322,0.4323,0.4323,0.4324,0,0,0.4892,0.4808,0.479,0.4754,0.4687,0.4634,0.4563,0.4491,0.4453,0.4398,0.4334,0.4239,0.4249,0.4205,0.4189,0.4139,0.4056,0.4156,0.4154,0.4136,0.3937,0.3926,0.3909,0.4055,0.4052,0.405,0.3941,0,0.4796,0.4672,0.4651,0.454,0.4478,0.4474,0.4411,0.4361,0.4332,0.4272,0.4239,0.4171,0.4191,0.4164,0.4115,0.4077,0.4015,0.4085,0.3991,0.3988,0.4004,0.389,0.3878,0.3778,0.3927,0.3924,0.3922,0,0.4667,0.4611,0.4494,0.4434,0.4406,0.4351,0.4282,0.4227,0.4169,0.4151,0.4103,0.4092,0.4014,0.4051,0.3941,0.3988,0.3949,0.3925,0.392,0.3907,0.3948,0.387,0.3746,0.3729,0.39,0.3902,0.3903,0,0.4602,0.4497,0.4413,0.4383,0.4311,0.4272,0.4239,0.4184,0.4142,0.4081,0.4053,0.3983,0.3944,0.3889,0.3859,0.3889,0.3749,0.3784,0.3729,0.3729,0.3696,0.3698,0.3559,0.3678,0.3678,0.3678,0.3679,0,0.4495,0.4422,0.4382,0.433,0.4248,0.4225,0.4143,0.4112,0.4062,0.4001,0.3994,0.3936,0.3902,0.3838,0.3814,0.3724,0.3707,0.3688,0.3681,0.3686,0.3688,0.3657,0.3662,0.3674,0.3675,0.3676,0.3677,0,0.4406,0.4377,0.4285,0.4225,0.4208,0.415,0.4097,0.4044,0.4016,0.3939,0.392,0.3874,0.3799,0.3765,0.3671,0.3654,0.3551,0.3552,0.3571,0.3568,0.3513,0.3517,0.3346,0.3321,0.346,0.3459,0.3458,0,0.4338,0.4283,0.4217,0.4177,0.4144,0.408,0.4037,0.4012,0.3967,0.3896,0.3851,0.3777,0.3715,0.3594,0.3551,0.3478,0.3474,0.342,0.3463,0.3469,0.3469,0.3471,0.3463,0.341,0.3409,0.3408,0.3407,0,0.4219,0.4207,0.4147,0.4081,0.4031,0.3977,0.3924,0.3891,0.3857,0.3806,0.3731,0.3683,0.3589,0.3513,0.3438,0.3401,0.3396,0.3395,0.3377,0.3379,0.3391,0.338,0.3545,0.3397,0.3398,0.3399,0.34,0.34,0.4136,0.4085,0.4031,0.3963,0.3922,0.3872,0.382,0.3786,0.3723,0.3645,0.3634,0.3552,0.3493,0.3393,0.3353,0.3287,0.3299,0.3275,0.3268,0.3261,0.3256,0.3406,0.3273,0.3274,0.3274,0.3274,0.3274,0,0.4013,0.3978,0.3917,0.3844,0.379,0.3795,0.3736,0.369,0.3619,0.3566,0.3506,0.3417,0.3344,0.3296,0.322,0.3176,0.3172,0.3157,0.3157,0.3148,0.3251,0.3272,0.3161,0.3161,0.3161,0.3161,0.3161,0.3161,0.3942,0.3856,0.3838,0.373,0.3695,0.3616,0.3582,0.3535,0.3493,0.3395,0.3335,0.3305,0.3252,0.3173,0.3105,0.3092,0.3063,0.3047,0.3034,0.313,0.3141,0.3152,0.3172,0.3042,0.3042,0.2936,0.2935,0.2934]}]]